Tracking 25701 objects as of 3-Jul-2022
HD Live streaming from Space Station
objects crossing your sky now

FENGYUN 1C DEB

Track FENGYUN 1C DEB now!
10-day predictions


NORAD ID: 30887
Int'l Code: 1999-025AXZ
Perigee: 570.2 km
Apogee: 1,006.9 km
Inclination: 98.5 °
Period: 100.5 minutes
Semi major axis: 7159 km
RCS: 0.0043 m2 (small)
Launch date: May 10, 1999
Source: People's Republic of China (PRC)
Launch site: Taiyaun Space Center, China (TSC)

Note: This is SATELLITE DEBRIS
aabbcc
Your satellite tracking list
Your tracking list is empty




NASA's NSSDC Master Catalog

Two Line Element Set (TLE):
1 30887U 99025AXZ 22183.62295108  .00001105  00000-0  25109-3 0  9997
2 30887  98.5391 240.9910 0304968  99.1816 264.3997 14.33090504800289
Source of the keplerian elements: AFSPC